Location: Indian Hills
(32.9760°N, 85.9450°W)
Time: 18:20:32
(UTC+00:00)

Cosmos 1627 Rocket - Pass Details

Date: 09 December 2019
Orbit: 951 x 1003 km, 82.9° (Epoch: 20 January)

Event Time Altitude Azimuth Distance (km) Brightness Sun altitude
Rises 11:26:41 0° 351° (N) 3,673 7.2 -14.0°
Reaches altitude 10° 11:29:12 10° 349° (N) 2,730 6.6 -13.5°
Maximum altitude 11:35:25 73° 267° (W) 1,031 4.5 -12.3°
Drops below altitude 10° 11:41:42 10° 183° (S) 2,749 7.1 -11.1°
Sets 11:44:14 0° 182° (S) 3,700 7.8 -10.6°
